• In Portugal
  • List of Countries
  • For 7 days
  • Water Temperature
  • Satellite Maps
  • Weather Map
  • Weather Widgets
  • user-avatar
    Login

    Hourly Weather Pinsa

    Today, 18 August, Saturday

    Time Temperature Precipitation Wind Pressure Humidity
    00:00 +30°C° 0 mm 4 mps 733 mmHg 68%
    01:00 +29°C° 11.7 mm 3 mps 733 mmHg 73%
    02:00 +29°C° 11.7 mm 3 mps 733 mmHg 78%
    03:00 +28°C° 11.7 mm 2 mps 733 mmHg 83%
    04:00 +28°C° 3.9 mm 3 mps 733 mmHg 82%
    05:00 +28°C° 3.9 mm 4 mps 734 mmHg 81%
    06:00 +28°C° 0 mm 5 mps 734 mmHg 77%
    07:00 +28°C° 0.2 mm 4 mps 734 mmHg 75%
    08:00 +29°C° 0.2 mm 4 mps 734 mmHg 72%
    09:00 +29°C° 0.2 mm 4 mps 734 mmHg 70%
    10:00 +30°C° 0 mm 3 mps 734 mmHg 63%
    11:00 +33°C° 0 mm 3 mps 734 mmHg 57%
    12:00 +34°C° 0 mm 2 mps 734 mmHg 52%
    13:00 +35°C° 0 mm 2 mps 733 mmHg 49%
    14:00 +35°C° 0 mm 2 mps 733 mmHg 46%
    15:00 +36°C° 0 mm 2 mps 732 mmHg 43%
    16:00 +36°C° 0 mm 2 mps 732 mmHg 44%
    17:00 +36°C° 0 mm 2 mps 732 mmHg 45%
    18:00 +35°C° 0 mm 2 mps 732 mmHg 46%
    19:00 +34°C° 0 mm 3 mps 733 mmHg 50%
    20:00 +34°C° 0 mm 4 mps 733 mmHg 54%
    21:00 +33°C° 0 mm 5 mps 734 mmHg 58%
    22:00 +32°C° 0 mm 5 mps 734 mmHg 62%
    23:00 +30°C° 0 mm 5 mps 734 mmHg 65%

    Tomorrow, 19 August, Sunday

    Time Temperature Precipitation Wind Pressure Humidity
    00:00 +29°C° 0 mm 5 mps 734 mmHg 69%
    01:00 +29°C° 0 mm 5 mps 734 mmHg 70%
    02:00 +29°C° 0 mm 4 mps 733 mmHg 71%
    03:00 +28°C° 0 mm 4 mps 733 mmHg 72%
    04:00 +28°C° 0 mm 4 mps 734 mmHg 73%
    05:00 +28°C° 0 mm 4 mps 734 mmHg 74%
    06:00 +27°C° 0 mm 4 mps 734 mmHg 76%
    07:00 +28°C° 0 mm 4 mps 735 mmHg 72%
    08:00 +29°C° 0 mm 4 mps 735 mmHg 68%
    09:00 +30°C° 0 mm 5 mps 736 mmHg 64%
    10:00 +32°C° 0 mm 5 mps 735 mmHg 59%
    11:00 +34°C° 0 mm 5 mps 735 mmHg 54%
    12:00 +35°C° 0 mm 5 mps 735 mmHg 50%
    13:00 +35°C° 0 mm 4 mps 734 mmHg 48%
    14:00 +35°C° 0 mm 4 mps 734 mmHg 47%
    15:00 +36°C° 0 mm 3 mps 733 mmHg 45%
    16:00 +36°C° 0 mm 3 mps 733 mmHg 46%
    17:00 +35°C° 0 mm 3 mps 733 mmHg 47%
    18:00 +35°C° 0 mm 3 mps 733 mmHg 48%
    19:00 +34°C° 0 mm 3 mps 734 mmHg 51%
    20:00 +34°C° 0 mm 4 mps 734 mmHg 53%
    21:00 +33°C° 0 mm 4 mps 735 mmHg 56%
    22:00 +33°C° 0.1 mm 5 mps 735 mmHg 59%
    23:00 +32°C° 0.1 mm 5 mps 735 mmHg 62%

    Day after tomorrow, 20 August, Monday

    Time Temperature Precipitation Wind Pressure Humidity
    00:00 +30°C° 0.1 mm 6 mps 735 mmHg 65%
    01:00 +30°C° 0 mm 6 mps 735 mmHg 67%
    02:00 +29°C° 0 mm 6 mps 734 mmHg 69%
    03:00 +29°C° 0 mm 6 mps 734 mmHg 71%
    04:00 +28°C° 0 mm 6 mps 734 mmHg 71%
    05:00 +28°C° 0 mm 6 mps 734 mmHg 71%
    06:00 +28°C° 0 mm 6 mps 735 mmHg 72%
    07:00 +29°C° 0 mm 6 mps 735 mmHg 69%
    08:00 +29°C° 0 mm 6 mps 735 mmHg 67%
    09:00 +30°C° 0 mm 6 mps 736 mmHg 64%
    10:00 +32°C° 0 mm 6 mps 735 mmHg 59%
    11:00 +34°C° 0 mm 6 mps 735 mmHg 54%
    12:00 +35°C° 0 mm 6 mps 735 mmHg 49%
    13:00 +36°C° 0 mm 5 mps 734 mmHg 46%
    14:00 +36°C° 0 mm 4 mps 734 mmHg 44%
    15:00 +37°C° 0 mm 3 mps 733 mmHg 41%
    16:00 +37°C° 0 mm 3 mps 733 mmHg 42%
    17:00 +36°C° 0 mm 3 mps 732 mmHg 43%
    18:00 +36°C° 0 mm 2 mps 732 mmHg 44%
    19:00 +35°C° 0 mm 3 mps 733 mmHg 48%
    20:00 +34°C° 0 mm 4 mps 734 mmHg 51%
    21:00 +34°C° 0 mm 4 mps 735 mmHg 54%
    22:00 +33°C° 0 mm 5 mps 735 mmHg 58%
    23:00 +32°C° 0 mm 5 mps 735 mmHg 61%

    21 August, Tuesday

    Time Temperature Precipitation Wind Pressure Humidity
    00:00 +32°C° 0 mm 6 mps 735 mmHg 65%
    01:00 +30°C° 0 mm 6 mps 734 mmHg 66%
    02:00 +30°C° 0 mm 6 mps 734 mmHg 68%
    03:00 +29°C° 0 mm 6 mps 734 mmHg 70%
    04:00 +29°C° 0.2 mm 6 mps 734 mmHg 71%
    05:00 +29°C° 0.2 mm 6 mps 734 mmHg 71%
    06:00 +28°C° 0.2 mm 7 mps 734 mmHg 72%
    07:00 +29°C° 0.2 mm 6 mps 735 mmHg 68%
    08:00 +30°C° 0.2 mm 6 mps 735 mmHg 65%
    09:00 +30°C° 0.2 mm 5 mps 736 mmHg 61%
    10:00 +30°C° 1.8 mm 5 mps 735 mmHg 64%
    11:00 +30°C° 1.8 mm 5 mps 735 mmHg 66%
    12:00 +30°C° 1.8 mm 5 mps 735 mmHg 68%
    13:00 +33°C° 0 mm 5 mps 734 mmHg 61%
    14:00 +34°C° 0 mm 5 mps 734 mmHg 54%
    15:00 +36°C° 0 mm 5 mps 733 mmHg 47%
    16:00 +35°C° 0 mm 4 mps 733 mmHg 48%
    17:00 +35°C° 0 mm 3 mps 733 mmHg 49%
    18:00 +35°C° 0 mm 2 mps 733 mmHg 50%
    19:00 +34°C° 0 mm 2 mps 733 mmHg 52%
    20:00 +32°C° 0 mm 2 mps 734 mmHg 53%
    21:00 +33°C° 0 mm 3 mps 734 mmHg 55%
    22:00 +31°C° 0.1 mm 3 mps 734 mmHg 56%
    23:00 +31°C° 0.1 mm 3 mps 734 mmHg 57%

    22 August, Wednesday

    Time Temperature Precipitation Wind Pressure Humidity
    00:00 +32°C° 0.1 mm 4 mps 734 mmHg 57%
    01:00 +30°C° 0.1 mm 4 mps 734 mmHg 59%
    02:00 +30°C° 0.1 mm 4 mps 734 mmHg 62%
    03:00 +30°C° 0.1 mm 5 mps 733 mmHg 64%
    04:00 +29°C° 0 mm 5 mps 734 mmHg 67%
    05:00 +29°C° 0 mm 5 mps 734 mmHg 70%
    06:00 +29°C° 0 mm 5 mps 734 mmHg 73%
    07:00 +30°C° 0 mm 5 mps 735 mmHg 68%
    08:00 +32°C° 0 mm 5 mps 735 mmHg 63%
    09:00 +33°C° 0 mm 5 mps 736 mmHg 58%
    10:00 +34°C° 0 mm 5 mps 735 mmHg 53%
    11:00 +36°C° 0 mm 5 mps 735 mmHg 48%
    12:00 +37°C° 0 mm 4 mps 735 mmHg 43%
    13:00 +38°C° 0 mm 3 mps 734 mmHg 41%
    14:00 +38°C° 0 mm 2 mps 733 mmHg 38%
    15:00 +39°C° 0 mm 1 mps 733 mmHg 35%
    16:00 +37°C° 0 mm 1 mps 733 mmHg 37%
    17:00 +37°C° 0 mm 1 mps 733 mmHg 39%
    18:00 +37°C° 0 mm 1 mps 732 mmHg 41%
    19:00 +36°C° 0 mm 1 mps 733 mmHg 42%
    20:00 +35°C° 0 mm 1 mps 733 mmHg 43%
    21:00 +35°C° 0 mm 1 mps 734 mmHg 44%
    22:00 +35°C° 0.1 mm 2 mps 733 mmHg 46%
    23:00 +35°C° 0.1 mm 3 mps 733 mmHg 48%

    23 August, Thursday

    Time Temperature Precipitation Wind Pressure Humidity
    00:00 +34°C° 0.1 mm 4 mps 733 mmHg 50%
    01:00 +34°C° 0.1 mm 4 mps 733 mmHg 52%
    02:00 +33°C° 0.1 mm 4 mps 732 mmHg 55%
    03:00 +33°C° 0.1 mm 5 mps 732 mmHg 57%
    04:00 +32°C° 0 mm 4 mps 733 mmHg 58%
    05:00 +32°C° 0 mm 4 mps 733 mmHg 60%
    06:00 +32°C° 0 mm 4 mps 733 mmHg 61%
    07:00 +33°C° 0 mm 5 mps 734 mmHg 59%
    08:00 +33°C° 0 mm 5 mps 734 mmHg 56%
    09:00 +34°C° 0 mm 6 mps 734 mmHg 54%
    10:00 +36°C° 0.1 mm 6 mps 734 mmHg 50%
    11:00 +38°C° 0.1 mm 6 mps 733 mmHg 46%
    12:00 +39°C° 0.1 mm 6 mps 733 mmHg 42%
    13:00 +40°C° 0 mm 5 mps 732 mmHg 40%
    14:00 +40°C° 0 mm 5 mps 732 mmHg 38%
    15:00 +41°C° 0 mm 5 mps 731 mmHg 36%
    16:00 +39°C° 0.1 mm 5 mps 731 mmHg 40%
    17:00 +37°C° 0.1 mm 5 mps 731 mmHg 44%
    18:00 +36°C° 0.1 mm 6 mps 731 mmHg 47%
    19:00 +35°C° 0.1 mm 6 mps 731 mmHg 52%
    20:00 +34°C° 0.1 mm 7 mps 731 mmHg 57%
    21:00 +33°C° 0.1 mm 7 mps 731 mmHg 62%
    22:00 +32°C° 0 mm 8 mps 731 mmHg 64%
    23:00 +32°C° 0 mm 8 mps 731 mmHg 66%
    Show more